SCP
0 0 0 0 0 0 0 0 0 0 0 0 0 0 0 0 0 0 0 0 0 1 1 1 1 0 1 0 0 0 1 1 1 0 0 0 0 0 0 0 0 0 0
0 0 0 0 0 0 0 0 0 0 0 0 0 0 0 0 0 0 0 0 0 0 1 1 1 1 1 1 1 1 1 1 1 1 1 0 0 0 0 0 0 0 0
0 0 0 0 0 0 0 0 0 0 0 0 0 0 0 0 0 0 0 0 0 1 1 1 1 1 1 1 1 1 1 1 1 1 1 1 0 0 0 0 0 0 0
0 0 0 0 0 0 0 0 0 0 0 0 0 0 0 0 0 0 0 0 0 0 1 1 1 1 1 1 1 1 1 1 1 1 1 1 1 0 0 0 0 0 0
0 0 0 0 1 1 0 0 0 0 0 0 2 2 1 0 0 0 0 0 0 0 0 0 0 1 1 0 1 1 1 1 1 1 1 1 1 1 1 0 0 0 0
0 0 0 0 0 0 0 0 0 0 0 0 1 0 0 1 0 0 1 0 0 0 0 1 0 0 0 0 1 1 1 1 1 1 1 1 1 1 1 0 0 0 0
0 0 0 0 0 0 0 0 0 0 0 0 0 0 0 0 0 0 0 0 0 0 0 0 0 0 0 0 0 1 0 1 1 1 1 1 1 1 1 0 0 0 0
0 0 0 0 0 0 0 0 0 0 0 0 0 0 0 0 0 0 0 0 0 0 0 0 0 0 0 0 1 1 1 1 1 1 1 1 0 1 0 1 0 0 0
0 0 0 0 0 0 0 0 0 0 0 0 0 0 0 0 0 0 0 0 0 0 0 0 0 0 0 0 0 1 1 1 1 2 1 0 0 1 0 0 0 0 0
0 0 0 0 0 0 0 0 0 0 0 0 0 1 0 0 0 0 0 0 0 -0 0 0 0 0 0 0 0 0 0 0 0 1 1 1 0 0 0 0 0 0 0
0 0 0 0 0 0 0 0 0 1 0 0 0 0 0 0 0 -0 -0 -0 -0 -0 0 0 0 0 0 0 0 0 0 0 0 0 1 1 1 1 1 0 0 0 0
0 0 0 0 0 0 0 0 0 0 0 0 0 0 0 0 -0 -0 0 0 -0 -0 0 0 0 0 0 0 0 0 0 0 0 0 0 0 0 0 0 0 0 0 0
0 0 0 0 0 0 0 0 0 0 0 0 0 0 -0 -0 0 0 0 0 0 0 0 0 0 0 0 0 0 0 0 0 0 0 0 0 0 0 0 0 0 0 0
0 0 0 0 0 0 0 0 0 -0 -0 0 -0 -0 -0 0 0 0 0 0 0 0 0 0 0 0 0 0 0 0 0 0 0 0 0 0 0 0 0 0 0 0 0
0 1 0 0 0 0 0 0 0 0 -0 -0 -0 -0 -0 0 0 0 0 0 0 0 0 0 0 0 0 0 0 0 0 0 0 0 0 0 0 0 0 0 0 0 0
0 0 0 0 0 0 0 0 0 -0 -0 -0 -0 0 0 0 0 0 0 0 0 0 0 0 0 0 0 0 0 0 0 0 0 0 0 0 0 0 0 0 0 0 0
0 0 0 0 0 0 0 -0 -0 -0 -0 0 0 0 0 0 0 0 0 0 0 0 0 0 0 0 0 0 0 0 0 0 0 0 0 0 0 0 0 0 0 0 0
-0 0 0 0 0 0 0 0 0 0 0 0 0 0 0 0 0 0 0 0 0 0 0 0 0 0 0 0 0 0 0 0 0 0 0 0 0 0 0 0 0 0 0
0 0 0 0 0 0 0 0 0 0 0 0 0 0 0 0 0 0 0 0 0 0 0 0 0 0 0 0 0 0 0 0 0 0 0 0 0 0 0 0 -0 -0 0
0 0 0 0 0 0 0 0 0 0 0 0 0 0 0 0 0 0 0 0 0 0 0 0 0 0 0 0 0 0 0 0 0 0 0 0 0 0 0 -0 -0 -0 0
0 0 0 0 0 0 0 0 0 0 0 0 0 0 0 0 0 0 0 0 0 0 0 0 0 0 0 0 0 0 0 0 0 0 0 0 0 0 0 0 0 -0 -0
0 0 0 0 0 0 0 0 0 0 0 0 0 0 0 0 0 0 0 0 0 0 0 0 0 0 0 0 0 0 0 0 0 0 0 0 0 0 0 0 0 0 0
0 0 0 0 0 0 0 0 0 0 0 0 0 0 0 0 0 0 0 0 0 0 0 0 0 0 0 0 0 0 0 0 0 0 0 0 0 0 0 0 0 0 0
0 -0 0 0 0 0 0 0 0 0 0 0 0 0 0 0 0 0 0 0 0 0 0 0 0 0 0 0 0 0 0 0 0 0 0 0 0 0 0 0 0 0 0
-0 -0 0 0 0 0 0 0 0 0 0 0 0 0 0 0 0 0 0 0 0 0 0 0 0 0 0 0 0 0 0 0 0 0 0 0 0 0 0 0 0 0 0
-0 -0 0 0 0 0 0 0 0 0 0 0 0 0 0 0 0 0 0 0 0 0 0 0 0 0 0 0 0 0 0 0 0 0 0 0 0 0 0 0 0 0 0
Wind_Speed_500mb
44 39 38 40 40 36 33 34 33 33 32 30 32 35 33 34 31 32 35 37 38 33 30 36 35 37 33 30 30 31 36 37 36 36 36 36 34 33 31 31 31 28 29
44 43 40 37 37 36 27 18 21 26 34 31 29 32 35 34 38 42 47 48 48 44 43 41 38 37 35 34 33 30 29 34 34 36 37 37 38 40 37 36 35 33 33
46 45 45 42 36 31 31 24 25 24 26 28 30 31 36 42 45 43 36 33 32 30 32 31 31 30 36 33 29 30 30 29 30 31 37 40 41 40 42 42 41 39 39
41 47 47 42 35 36 36 37 27 28 33 28 31 37 45 51 48 48 47 40 38 34 36 37 37 40 44 41 38 37 36 35 33 29 35 40 43 42 42 44 45 45 46
40 44 52 44 49 49 55 45 43 33 41 37 38 45 45 53 60 59 50 46 40 45 35 24 31 36 37 37 37 42 43 39 39 33 36 38 42 43 45 46 45 47 49
49 50 60 62 51 53 52 55 56 51 56 50 47 40 51 50 59 35 43 43 41 41 40 28 32 35 34 32 35 37 38 44 43 38 33 40 41 43 44 49 52 52 50
62 61 64 57 64 63 64 69 57 59 60 62 44 62 58 63 51 62 43 41 40 35 27 26 39 41 40 40 37 33 32 29 37 35 38 46 44 45 46 46 45 54 55
49 57 63 67 65 78 82 83 72 80 78 69 61 46 36 56 54 46 29 25 19 12 13 25 34 40 45 42 37 38 34 35 38 38 39 45 33 30 38 40 46 46 49
58 64 75 61 64 73 82 88 80 77 67 53 46 25 15 19 27 29 32 30 37 28 25 26 22 28 28 24 25 34 35 38 32 31 27 34 33 32 38 39 40 47 54
75 70 60 60 65 65 69 72 74 63 59 51 37 46 41 32 23 33 28 35 49 47 37 33 30 29 29 28 27 30 31 32 33 32 32 33 33 30 32 37 36 39 48
81 64 66 56 49 45 46 61 51 43 55 53 54 43 38 34 44 40 36 46 58 63 48 44 33 33 31 38 43 49 44 36 34 30 30 23 21 29 37 39 40 40 49
73 69 62 54 56 45 40 39 59 60 52 59 54 36 38 39 50 57 69 74 77 65 58 51 42 40 42 44 38 35 39 32 25 26 29 34 36 38 42 44 46 50 49
74 61 57 61 58 50 47 53 34 28 71 64 35 32 43 55 63 69 70 67 60 63 65 52 40 35 33 32 36 43 30 29 26 28 31 34 36 40 52 53 56 56 55
47 54 60 60 60 66 62 56 60 51 68 63 51 71 59 62 71 67 53 48 55 63 63 55 49 39 36 36 36 33 32 34 32 34 35 41 47 49 48 55 53 49 50
50 46 49 54 58 29 34 37 64 54 62 74 76 72 66 64 60 48 45 49 49 55 64 61 58 49 36 38 37 35 34 33 40 49 53 49 50 44 44 40 43 44 54
46 49 46 29 40 61 58 54 67 68 66 63 61 65 58 54 51 48 48 46 50 57 67 64 62 62 54 47 43 46 53 62 52 45 40 39 47 53 45 42 47 54 61
17 19 26 25 27 22 17 32 51 55 68 58 53 50 45 45 46 46 47 49 54 60 72 75 71 67 64 58 52 52 49 51 56 60 61 65 51 52 45 50 57 61 55
29 23 3 6 6 5 20 25 36 37 38 39 37 40 44 45 51 53 58 62 65 67 74 89 86 83 78 68 64 63 49 54 64 59 46 43 46 46 47 53 47 46 49
12 9 6 3 2 11 22 28 33 38 41 44 47 53 54 59 69 70 74 76 79 83 86 95 100 88 91 83 79 64 63 70 70 56 55 62 55 67 68 61 68 64 59
4 3 4 8 13 16 20 24 28 33 38 40 45 51 56 61 67 69 75 78 74 77 78 85 90 84 84 77 72 72 73 66 64 59 63 70 71 77 73 77 81 80 71
18 19 21 22 25 27 33 42 46 49 53 56 58 62 65 67 67 69 70 72 69 71 72 73 79 72 72 73 83 84 79 67 64 69 72 71 81 83 76 67 64 74 73
29 32 35 38 41 42 46 52 57 61 63 66 72 74 75 77 78 77 73 67 65 69 80 84 89 83 78 74 58 60 68 68 73 73 78 88 75 75 84 74 69 61 63
43 45 47 49 49 48 47 47 47 50 54 57 61 65 69 70 72 73 75 74 74 73 70 70 79 81 79 77 80 75 61 67 70 74 77 85 77 80 77 68 66 57 54
53 54 51 47 46 47 49 51 56 61 65 66 68 69 70 71 70 68 65 69 78 81 82 84 87 90 90 87 79 73 71 75 77 65 65 75 78 75 70 67 63 48 47
58 57 57 59 62 65 62 57 52 49 50 49 47 45 46 48 46 45 50 54 58 63 62 62 60 59 56 53 60 65 72 75 78 85 82 74 76 68 67 70 51 35 37
66 69 72 69 63 53 42 38 33 40 46 52 55 56 53 50 43 42 46 50 60 66 65 67 73 62 54 55 58 61 64 73 75 66 67 55 57 51 60 60 19 25 25
Wind_Direction_500mb
234 235 236 232 230 233 243 254 259 261 258 253 245 238 241 242 241 252 258 262 266 270 269 281 284 288 292 304 311 297 289 286 283 280 276 273 272 271 272 272 272 270 273
237 242 236 227 225 227 232 247 261 257 260 251 252 256 261 272 272 266 268 270 268 269 271 272 283 284 286 293 295 299 303 293 292 285 280 278 275 273 271 270 272 272 271
239 241 231 227 231 234 232 242 239 242 250 249 258 272 281 285 269 268 267 270 277 274 272 274 288 288 287 291 295 288 292 295 296 292 287 281 276 274 273 269 269 269 268
222 226 221 226 225 245 248 242 245 240 236 247 263 275 283 284 279 271 269 267 273 278 280 280 287 289 287 289 288 293 287 284 278 287 291 286 280 274 272 271 269 269 268
224 222 215 221 226 232 237 238 239 234 221 223 211 234 263 267 278 279 268 271 271 279 279 280 284 291 293 289 282 287 283 289 278 277 285 283 282 274 271 271 269 270 270
225 225 223 225 228 231 237 238 235 225 229 233 242 243 252 255 261 262 274 272 273 279 276 286 277 278 289 287 288 295 294 283 279 272 279 284 283 277 274 271 267 266 268
233 232 228 231 233 233 231 232 236 233 238 246 232 249 247 250 258 267 272 270 267 270 281 278 284 282 286 290 296 295 296 273 279 273 280 279 287 276 281 279 273 270 268
227 236 242 242 243 245 235 239 238 238 240 246 249 252 263 258 258 249 247 257 247 287 285 265 269 279 283 283 275 281 285 275 278 270 277 288 276 278 276 273 271 271 265
259 260 252 257 261 258 249 239 249 244 253 241 224 212 194 238 256 254 267 283 311 285 284 297 290 286 294 285 289 282 277 279 277 268 285 289 257 279 278 285 281 268 269
244 252 257 265 262 263 263 250 260 252 244 226 222 230 236 253 235 276 262 239 275 292 298 297 293 289 291 291 289 292 295 289 284 280 276 272 278 277 280 280 278 281 275
242 244 263 257 257 266 262 258 234 246 237 237 262 242 243 256 250 249 261 248 269 277 288 297 289 273 273 285 289 296 302 298 287 280 277 271 268 267 262 268 274 274 280
242 262 247 258 265 261 254 244 243 248 255 249 246 250 250 258 247 250 252 263 271 277 289 290 284 277 276 283 289 300 311 316 302 289 275 268 270 272 275 277 279 285 280
256 253 260 253 261 251 245 263 266 246 273 253 246 191 218 241 254 256 258 254 270 282 288 288 288 290 289 285 281 293 288 296 295 294 285 275 277 288 289 286 286 285 285
274 264 259 259 260 248 242 241 260 241 255 246 195 211 223 232 241 246 258 268 279 281 282 287 288 291 287 280 288 291 283 288 274 276 284 287 290 296 286 290 289 287 285
264 269 264 263 267 270 250 251 231 237 248 236 230 241 249 244 244 254 265 273 275 275 281 286 291 297 294 294 293 280 278 268 277 283 292 289 286 283 284 282 294 301 298
251 254 258 260 270 276 261 254 223 227 241 238 239 250 247 245 252 258 265 269 267 270 270 283 290 291 295 294 292 279 277 285 298 300 289 278 281 283 277 280 284 292 297
265 261 256 247 256 258 241 232 236 250 241 247 240 244 253 263 267 275 276 275 275 276 280 287 286 288 288 290 287 287 283 282 296 299 287 281 279 281 279 281 284 286 292
78 46 273 331 313 268 256 267 258 254 247 249 253 262 268 275 281 282 281 280 279 277 280 281 283 285 286 293 290 285 274 280 296 297 280 284 285 280 278 284 290 285 286
40 57 87 113 230 253 247 243 247 247 251 256 260 263 266 269 271 271 274 277 279 281 278 279 282 284 285 285 285 280 271 282 284 286 273 270 294 293 286 273 278 288 286
305 298 266 257 258 263 268 265 257 256 260 262 264 265 264 265 267 269 269 268 269 270 273 275 279 282 282 283 280 278 275 275 279 277 273 271 283 300 294 285 274 277 282
316 303 289 281 276 270 270 271 272 273 273 272 270 267 266 267 268 270 272 271 273 275 277 277 277 280 280 273 270 275 273 274 273 277 273 268 283 291 290 294 288 271 270
310 307 302 297 294 290 283 279 277 277 278 278 276 276 279 280 282 283 284 287 284 279 277 276 275 273 275 275 277 272 270 266 267 273 271 278 280 281 285 290 299 277 267
306 304 303 303 303 303 302 300 296 291 287 286 286 286 285 283 283 283 282 280 278 277 275 277 274 274 277 277 276 272 266 268 267 274 275 274 272 283 284 289 296 277 269
308 310 310 310 309 307 304 298 294 290 287 286 284 284 285 287 287 287 288 284 280 280 281 280 277 277 275 274 275 273 272 270 269 269 265 263 277 280 288 292 297 277 271
314 310 308 306 304 302 301 300 300 297 296 298 299 301 303 303 301 296 290 289 286 284 283 282 282 279 274 271 270 274 272 268 264 262 264 262 267 274 283 291 294 295 262
312 309 305 304 303 304 306 307 303 305 307 310 310 311 312 314 309 296 290 292 291 292 293 289 279 278 272 269 267 266 267 259 255 254 257 254 259 274 285 298 281 296 282
Wind_Speed_850mb
44 39 38 40 40 36 33 34 33 33 32 30 32 35 33 34 31 32 35 37 38 33 30 36 35 37 33 30 30 31 36 37 36 36 36 36 34 33 31 31 31 28 29
44 43 40 37 37 36 27 18 21 26 34 31 29 32 35 34 38 42 47 48 48 44 43 41 38 37 35 34 33 30 29 34 34 36 37 37 38 40 37 36 35 33 33
46 45 45 42 36 31 31 24 25 24 26 28 30 31 36 42 45 43 36 33 32 30 32 31 31 30 36 33 29 30 30 29 30 31 37 40 41 40 42 42 41 39 39
41 47 47 42 35 36 36 37 27 28 33 28 31 37 45 51 48 48 47 40 38 34 36 37 37 40 44 41 38 37 36 35 33 29 35 40 43 42 42 44 45 45 46
40 44 52 44 49 49 55 45 43 33 41 37 38 45 45 53 60 59 50 46 40 45 35 24 31 36 37 37 37 42 43 39 39 33 36 38 42 43 45 46 45 47 49
49 50 60 62 51 53 52 55 56 51 56 50 47 40 51 50 59 35 43 43 41 41 40 28 32 35 34 32 35 37 38 44 43 38 33 40 41 43 44 49 52 52 50
62 61 64 57 64 63 64 69 57 59 60 62 44 62 58 63 51 62 43 41 40 35 27 26 39 41 40 40 37 33 32 29 37 35 38 46 44 45 46 46 45 54 55
49 57 63 67 65 78 82 83 72 80 78 69 61 46 36 56 54 46 29 25 19 12 13 25 34 40 45 42 37 38 34 35 38 38 39 45 33 30 38 40 46 46 49
58 64 75 61 64 73 82 88 80 77 67 53 46 25 15 19 27 29 32 30 37 28 25 26 22 28 28 24 25 34 35 38 32 31 27 34 33 32 38 39 40 47 54
75 70 60 60 65 65 69 72 74 63 59 51 37 46 41 32 23 33 28 35 49 47 37 33 30 29 29 28 27 30 31 32 33 32 32 33 33 30 32 37 36 39 48
81 64 66 56 49 45 46 61 51 43 55 53 54 43 38 34 44 40 36 46 58 63 48 44 33 33 31 38 43 49 44 36 34 30 30 23 21 29 37 39 40 40 49
73 69 62 54 56 45 40 39 59 60 52 59 54 36 38 39 50 57 69 74 77 65 58 51 42 40 42 44 38 35 39 32 25 26 29 34 36 38 42 44 46 50 49
74 61 57 61 58 50 47 53 34 28 71 64 35 32 43 55 63 69 70 67 60 63 65 52 40 35 33 32 36 43 30 29 26 28 31 34 36 40 52 53 56 56 55
47 54 60 60 60 66 62 56 60 51 68 63 51 71 59 62 71 67 53 48 55 63 63 55 49 39 36 36 36 33 32 34 32 34 35 41 47 49 48 55 53 49 50
50 46 49 54 58 29 34 37 64 54 62 74 76 72 66 64 60 48 45 49 49 55 64 61 58 49 36 38 37 35 34 33 40 49 53 49 50 44 44 40 43 44 54
46 49 46 29 40 61 58 54 67 68 66 63 61 65 58 54 51 48 48 46 50 57 67 64 62 62 54 47 43 46 53 62 52 45 40 39 47 53 45 42 47 54 61
17 19 26 25 27 22 17 32 51 55 68 58 53 50 45 45 46 46 47 49 54 60 72 75 71 67 64 58 52 52 49 51 56 60 61 65 51 52 45 50 57 61 55
29 23 3 6 6 5 20 25 36 37 38 39 37 40 44 45 51 53 58 62 65 67 74 89 86 83 78 68 64 63 49 54 64 59 46 43 46 46 47 53 47 46 49
12 9 6 3 2 11 22 28 33 38 41 44 47 53 54 59 69 70 74 76 79 83 86 95 100 88 91 83 79 64 63 70 70 56 55 62 55 67 68 61 68 64 59
4 3 4 8 13 16 20 24 28 33 38 40 45 51 56 61 67 69 75 78 74 77 78 85 90 84 84 77 72 72 73 66 64 59 63 70 71 77 73 77 81 80 71
18 19 21 22 25 27 33 42 46 49 53 56 58 62 65 67 67 69 70 72 69 71 72 73 79 72 72 73 83 84 79 67 64 69 72 71 81 83 76 67 64 74 73
29 32 35 38 41 42 46 52 57 61 63 66 72 74 75 77 78 77 73 67 65 69 80 84 89 83 78 74 58 60 68 68 73 73 78 88 75 75 84 74 69 61 63
43 45 47 49 49 48 47 47 47 50 54 57 61 65 69 70 72 73 75 74 74 73 70 70 79 81 79 77 80 75 61 67 70 74 77 85 77 80 77 68 66 57 54
53 54 51 47 46 47 49 51 56 61 65 66 68 69 70 71 70 68 65 69 78 81 82 84 87 90 90 87 79 73 71 75 77 65 65 75 78 75 70 67 63 48 47
58 57 57 59 62 65 62 57 52 49 50 49 47 45 46 48 46 45 50 54 58 63 62 62 60 59 56 53 60 65 72 75 78 85 82 74 76 68 67 70 51 35 37
66 69 72 69 63 53 42 38 33 40 46 52 55 56 53 50 43 42 46 50 60 66 65 67 73 62 54 55 58 61 64 73 75 66 67 55 57 51 60 60 19 25 25
Wind_Direction_850mb
234 235 236 232 230 233 243 254 259 261 258 253 245 238 241 242 241 252 258 262 266 270 269 281 284 288 292 304 311 297 289 286 283 280 276 273 272 271 272 272 272 270 273
237 242 236 227 225 227 232 247 261 257 260 251 252 256 261 272 272 266 268 270 268 269 271 272 283 284 286 293 295 299 303 293 292 285 280 278 275 273 271 270 272 272 271
239 241 231 227 231 234 232 242 239 242 250 249 258 272 281 285 269 268 267 270 277 274 272 274 288 288 287 291 295 288 292 295 296 292 287 281 276 274 273 269 269 269 268
222 226 221 226 225 245 248 242 245 240 236 247 263 275 283 284 279 271 269 267 273 278 280 280 287 289 287 289 288 293 287 284 278 287 291 286 280 274 272 271 269 269 268
224 222 215 221 226 232 237 238 239 234 221 223 211 234 263 267 278 279 268 271 271 279 279 280 284 291 293 289 282 287 283 289 278 277 285 283 282 274 271 271 269 270 270
225 225 223 225 228 231 237 238 235 225 229 233 242 243 252 255 261 262 274 272 273 279 276 286 277 278 289 287 288 295 294 283 279 272 279 284 283 277 274 271 267 266 268
233 232 228 231 233 233 231 232 236 233 238 246 232 249 247 250 258 267 272 270 267 270 281 278 284 282 286 290 296 295 296 273 279 273 280 279 287 276 281 279 273 270 268
227 236 242 242 243 245 235 239 238 238 240 246 249 252 263 258 258 249 247 257 247 287 285 265 269 279 283 283 275 281 285 275 278 270 277 288 276 278 276 273 271 271 265
259 260 252 257 261 258 249 239 249 244 253 241 224 212 194 238 256 254 267 283 311 285 284 297 290 286 294 285 289 282 277 279 277 268 285 289 257 279 278 285 281 268 269
244 252 257 265 262 263 263 250 260 252 244 226 222 230 236 253 235 276 262 239 275 292 298 297 293 289 291 291 289 292 295 289 284 280 276 272 278 277 280 280 278 281 275
242 244 263 257 257 266 262 258 234 246 237 237 262 242 243 256 250 249 261 248 269 277 288 297 289 273 273 285 289 296 302 298 287 280 277 271 268 267 262 268 274 274 280
242 262 247 258 265 261 254 244 243 248 255 249 246 250 250 258 247 250 252 263 271 277 289 290 284 277 276 283 289 300 311 316 302 289 275 268 270 272 275 277 279 285 280
256 253 260 253 261 251 245 263 266 246 273 253 246 191 218 241 254 256 258 254 270 282 288 288 288 290 289 285 281 293 288 296 295 294 285 275 277 288 289 286 286 285 285
274 264 259 259 260 248 242 241 260 241 255 246 195 211 223 232 241 246 258 268 279 281 282 287 288 291 287 280 288 291 283 288 274 276 284 287 290 296 286 290 289 287 285
264 269 264 263 267 270 250 251 231 237 248 236 230 241 249 244 244 254 265 273 275 275 281 286 291 297 294 294 293 280 278 268 277 283 292 289 286 283 284 282 294 301 298
251 254 258 260 270 276 261 254 223 227 241 238 239 250 247 245 252 258 265 269 267 270 270 283 290 291 295 294 292 279 277 285 298 300 289 278 281 283 277 280 284 292 297
265 261 256 247 256 258 241 232 236 250 241 247 240 244 253 263 267 275 276 275 275 276 280 287 286 288 288 290 287 287 283 282 296 299 287 281 279 281 279 281 284 286 292
78 46 273 331 313 268 256 267 258 254 247 249 253 262 268 275 281 282 281 280 279 277 280 281 283 285 286 293 290 285 274 280 296 297 280 284 285 280 278 284 290 285 286
40 57 87 113 230 253 247 243 247 247 251 256 260 263 266 269 271 271 274 277 279 281 278 279 282 284 285 285 285 280 271 282 284 286 273 270 294 293 286 273 278 288 286
305 298 266 257 258 263 268 265 257 256 260 262 264 265 264 265 267 269 269 268 269 270 273 275 279 282 282 283 280 278 275 275 279 277 273 271 283 300 294 285 274 277 282
316 303 289 281 276 270 270 271 272 273 273 272 270 267 266 267 268 270 272 271 273 275 277 277 277 280 280 273 270 275 273 274 273 277 273 268 283 291 290 294 288 271 270
310 307 302 297 294 290 283 279 277 277 278 278 276 276 279 280 282 283 284 287 284 279 277 276 275 273 275 275 277 272 270 266 267 273 271 278 280 281 285 290 299 277 267
306 304 303 303 303 303 302 300 296 291 287 286 286 286 285 283 283 283 282 280 278 277 275 277 274 274 277 277 276 272 266 268 267 274 275 274 272 283 284 289 296 277 269
308 310 310 310 309 307 304 298 294 290 287 286 284 284 285 287 287 287 288 284 280 280 281 280 277 277 275 274 275 273 272 270 269 269 265 263 277 280 288 292 297 277 271
314 310 308 306 304 302 301 300 300 297 296 298 299 301 303 303 301 296 290 289 286 284 283 282 282 279 274 271 270 274 272 268 264 262 264 262 267 274 283 291 294 295 262
312 309 305 304 303 304 306 307 303 305 307 310 310 311 312 314 309 296 290 292 291 292 293 289 279 278 272 269 267 266 267 259 255 254 257 254 259 274 285 298 281 296 282